Regional Weather Roundup
Issued by NWS

Home | Current Version | Previous Version | Text Only | Print | Product List | Glossary Off
Versions: 1 2 3 4 5 6 7 8 9 10 11 12 13 14 15 16 17 18 19 20 21 22 23 24 25 26 27 28 29 30 31 32 33 34 35 36 37 38 39 40 41 42 43 44 45 46 47 48 49 50

000
ASUS43 KLSX 220707
RWRMO

WEATHER SUMMARY FOR MISSOURI
NATIONAL WEATHER SERVICE SPRINGFIELD MO
200 AM CDT FRI SEP 22 2017

NOTE: "FAIR" INDICATES FEW OR NO CLOUDS BELOW 12,000 FEET WITH NO
       SIGNIFICANT WEATHER AND/OR OBSTRUCTIONS TO VISIBILITY.
       CURRENT SKY AND/OR WEATHER CONDITIONS ARE NOT AVAILABLE FOR
       CHILLICOTHE AND FARMINGTON.

MOZ001>031-035>038-043-044-053-054-220800-
...NORTHERN AND WESTERN MISSOURI...

CITY           SKY/WX    TMP DP  RH WIND       PRES   REMARKS
KANSAS CTY INT CLEAR     78  70  76 S15       29.93R
KANSAS C DTWN  CLEAR     81  71  71 S8        29.93R
LEE`S SUMMIT   CLEAR     76  71  85 S7        29.95R
ST JOSEPH      CLEAR     80  72  76 S12       29.90R
CHILLICOTHE      N/A     76  70  82 S5        29.95R
KIRKSVILLE     CLEAR     72  68  87 S9        29.98R

$$
MOZ066>068-077>081-088>096-101>105-220800-
...SOUTHWEST MISSOURI...

CITY           SKY/WX    TMP DP  RH WIND       PRES   REMARKS
SPRINGFIELD    CLEAR     74  69  85 S9        30.00R
JOPLIN         CLEAR     75  71  87 SE9       29.96S
BRANSON        CLEAR     72  68  88 CALM      30.03R

$$
MOZ032>034-039>042-045>050-055>058-069>072-220800-
...CENTRAL MISSOURI...

CITY           SKY/WX    TMP DP  RH WIND       PRES   REMARKS
COLUMBIA       CLEAR     73  68  84 S7        30.01R
JEFFERSON CITY CLEAR     75  67  76 E3        29.99R
ROLLA          CLEAR     74  69  85 SE9       30.04R
SEDALIA        CLEAR     74  70  87 S6        29.98R
WHITEMAN AFB   CLEAR     71  68  89 S6        29.95R
WARRENSBURG    CLEAR     73  68  83 S6        29.95S
OSAGE BEACH    CLEAR     72  68  87 E3        30.01R

$$
MOZ051-052-059>065-220800-
...EAST CENTRAL MISSOURI...

CITY           SKY/WX    TMP DP  RH WIND       PRES   REMARKS
ST LOUIS INTL  PTCLDY    79  70  74 S10       30.03R
SPIRIT OF STL  CLEAR     73  70  90 CALM      30.01R
ST CHARLES     CLEAR     70  68  93 CALM      30.01R

$$
MOZ072>076-082>087-097>100-106>115-220800-
...SOUTH CENTRAL AND SOUTHEAST MISSOURI...

CITY           SKY/WX    TMP DP  RH WIND       PRES   REMARKS
CAPE GIRARDEAU CLEAR     69  66  90 CALM      30.03R
FARMINGTON     CLEAR     70  67  90 CALM      30.06R
POPLAR BLUFF   CLEAR     70  69  97 NW3       30.02R
WEST PLAINS    CLEAR     73  69  87 CALM      30.06R

$$



USA.gov is the U.S. government's official web portal to all federal, state and local government web resources and services.